Starlink 3075

operational
NORAD ID: 49409 Int'l Des: 2021-104 Owner: SPXS Country: US Constellation: starlink
LEOCIRCULAR

Starlink 3075について

説明を読み込み中...

リアルタイム位置

3D地球を読み込み中...

次回通過

高度履歴

Altitude vs Time

uPlot chart will show altitude changes over time

軌道要素

1 49409U 21104B 25350.13167875 -.00000199 00000-0 56282-5 0 9995
2 49409 53.2170 244.2256 0001696 87.4836 272.6350 15.08841589226025
Epoch: Dec 16, 2025 • Age: 22 hours

現在のステータス

高度 540.1 km
速度 7.59 km/s
衛星直下点 3.83°N, 135.41°E
打ち上げ日 Nov 13, 2021
運用期間 4 years
タイプ internet

技術仕様

分類 Payload
質量 290.00 kg
乾燥質量 270.00 kg
総質量 290.00 kg
長さ 0.20 m
直径 2.80 m
スパン 9.00 m
形状 Box + pan
製造者 SPXS
バスタイプ Starlink
フェーズステータス In Orbit
所有者/国 SPXS/US

大規模コンステレーション

Loading constellations...